Погода Старая Русса

Хотите узнать прогноз погоды Старая Русса? Тогда Вам сюда: Погода Старая Русса

Поиск расширенной информации на нашем сайте:

Полезная информация:

Новости сайта



02.01.2020
Опубликован Долгосрочный прогноз погоды по городам России и ближнего зарубежья на январь 2020 года.
Карты: Прогноз на январь и февраль 2020 года, Сравнение прогнозируемой аномалии приземной температуры воздуха на январь 2020 года по разным моделям.




Погода Старая Русса - сегодня

Время (UTC), дата Ветер
(°,м/с) 
Видим.   Явления Облачность Т
(°С)
Тd
(°С)
f(%) Тe
(°С)
Pmin
(гПа)
dP
(гПа)
Po
(мм)
O2
(г/м3)
Тmin Tmax R s Состояние
почвы
15 27.03.20 210 (ЮЗ) 20000 м    8/0 верхняя 
[Ci fib]
+13.5 -7.6 22 +15  1030.3  -2.5  770  297           
18 27.03.20 тихо ()   20000 м    3/0 верхняя 
[Ci fib]
+2.5 -3.8 63 +3  1029.4  -1  770  308    +14.4       
21 27.03.20 тихо ()   20000 м    ясно 
+1.7 -4.3 64 +2  1027.8  -1.6  769  308           
00 28.03.20 тихо ()   20000 м    ясно 
-0.2 -5.5 67 -0  1026.9  -1  768  310           
03 28.03.20 180 (Ю) 20000 м    ясно 
+0.7 -6.2 60 1024.5  -2.3  766  309  -1.2         
06 28.03.20 200 (Ю) 20000 м    8/0 средняя, верхняя 
[Ac trans|Cc]
+5.3 -4.7 48 +5  1021.8  -2.7  764  303  -1.2         
09 28.03.20 210 (ЮЗ) 20000 м    8/0 верхняя 
[Ci fib]
+14.4 -6.7 23 +15  1019.3  -2.4  762  292           
12 28.03.20 220 (ЮЗ) 20000 м    9/0 верхняя 
[Ci sp]
+16.2 -7 20 +17  1016.9  -2.3  761  290           
15 28.03.20 350 (С) 20000 м    3/0 средняя 
[Ac trans]
+14.6 -5.8 24 +16  1014.4  -2.5  759  291           
18 28.03.20 тихо ()   20000 м    1/0 средняя 
[Ac trans]
+3.6 -2.9 62 +4  1014.2  -0.4  758  302    +16.9       
21 28.03.20 тихо ()   20000 м    ясно 
-0.4 -3.6 79 -0  1013.6  -0.6  758  306           
00 29.03.20 тихо ()   20000 м    ясно 
-0.7 -3.3 83 -1  1012.8  -0.8  757  306           
03 29.03.20 020 (С) 20000 м    10/0 средняя 
[Ac und]
+4.3 -1.5 66 +3  1013  0.2  757  301  -1.5         
06 29.03.20 010 (С) 4{11}  20000 м    10/0 средняя 
[Ac As]
+2.2 -5.1 58 1014.8  1.8  759  304  -1.5         
09 29.03.20 010 (С) 5-10{12}  20000 м    10/0 средняя 
[Ac As]
+2.3 -6.5 52 1015.4  0.6  759  304           
12 29.03.20 030 (СВ) 20000 м    10/0 средняя 
[As trans]
+2.7 -8.4 44 +1  1015.3  -0.1  759  304           
15 29.03.20 360 (С) 20000 м    10/0 средняя 
[As op]
+2 -9.2 43 1015.1  -0.2  759  305           
18 29.03.20 020 (С) 20000 м  {ливн. осадки}  10/0 средняя 
[As trans]
+0.6 -13.7 33 -1  1016.3  1.2  760  307    +3  0.0     
21 29.03.20 020 (С) 20000 м    10/0 верхняя 
[Cs]
-0.3 -14.1 34 -3  1016.2  -0.1  760  308           
00 30.03.20 020 (С) 20000 м    8/0 верхняя 
[Ci fib]
-1.3 -12.1 44 -3  1016.5  0.3  760  309           
03 30.03.20 010 (С) 20000 м    10/0 верхняя 
[Cs]
-1.9 -10.1 53 -3  1016.3  -0.2  760  309  -2.1    0.0     
06 30.03.20 030 (СВ) 20000 м    3/0 верхняя 
[Ci fib]
-0.6 -10.9 46 -3  1017.6  1.3  761  308  -2.1         
09 30.03.20 020 (С) 20000 м    5/4 600 м верхняя 
[Cu med, cong|Ci fib]
+1.2 -12.2 36 1018.4  0.8  761  307           
12 30.03.20 010 (С) 20000 м    3/3 600 м верхняя 
[Cu med, cong|Ci fib]
+2 -14.2 29 1018.4  761  306           
15 30.03.20 350 (С) 20000 м    3/1 300 м средняя 
[Cu med, cong|Ac trans]
+1.2 -14.1 31 -1  1018.7  0.3  762  307           
Время (UTC), дата Ветер
(°,м/с) 
Видим.   Явления Облачность Т
(°С)
Тd
(°С)
f(%) Тe
(°С)
Pmin
(гПа)
dP
(гПа)
Po
(мм)
O2
(г/м3)
Тmin Tmax R s Состояние
почвы

Для получения пояснительной информации подведите курсор к названию столбца.

ПОГОДА Старая Русса - архив

Всё, что Вы хотите узнать о погоде Старая Русса - удобно и подробно!

Выберите нужную дату (начиная с 1 января 2019* года) и нажмите кнопку "Найти".
Будут отображены архивные сводки погоды по пункту Старая Русса, начиная с указанной даты.


Отображать данные в формате CSV (для использования в таблицах Excel)


Внимание! Наш архив погоды предназначен исключительно для личного некоммерческого использования в познавательных целях. Если Вам необходимы официальные справки о состоянии погоды (для производственных, юридических, коммерческих и т.п. целей), обращайтесь в органы Росгидромета.

*Примечание: данная дата относится к архиву по метеостанциям СССР (Россия, СНГ, Балтия).
Архив по метеостанциям Зарубежной Европы и Азии (кроме Китая) хранится 10 дней, по другим регионам земного шара (Китай, Африка, Америка, Австралия, Океания) - 1 день.

Старая Русса - район местоположения метеостанции


Название, широта, долгота, высота метеостанции:
Старая Русса 58°ш. 31.3°д. 25 м над ур. моря [Российская Федерация]

Дополнительная информация

В oтличие oт бoльшинства пoгoдных сайтoв мы публикуем пoдрoбную метеoинфoрмацию в детальнoм прoфессиoнальнoм фoрмате.

Характеристики температуры и влажнoсти вoздуха измеряются на высoте 2 м в тени вдали oт зданий и деревьев.
Скoрoсть ветра измеряется на высoте 10 м (на урoвне рoста челoвека скoрoсть ветра ниже в 1.5-2 раза). Если метеoстанция нахoдится в гoрoде или в лесу, тo скoрoсть ветра занижена на 2-4 м/с пo сравнению с oткрытым местoм. Скoрoсть ветра над акватoриями крупных рек и oзёр, а также на вершинах хoлмoв на 2-5 м/с выше, чем в oбычных услoвиях.
Атмoсфернoе давление в разных тoчках местнoсти мoжет значительнo oтличаться oт давления на метеoстанции, в зависимoсти oт услoвий рельефа (при пoдъёме на 10 м давление пoнижается примернo на 1 мм рт.ст.).